STARLINK-1066 (44954 NORAD) Tracking and Keplerian Element Data

This shows tracking and keplerian element data for the satellite.

Feedback or suggestion? Click here.




ElementValue
Catalog44954
NameSTARLINK-1066
Epoch Orbit648
Epoch Day48.58334491
Epoch Year2020
RAAN190.402
Inclination52.9955
Eccentricity0.0001568
Argument of Perigee45.6135
Mean Anonmoly282.3827
Mean Motion15.73240374
Decay Rate0.00023761
L11 44954U 20001AS 20048.58334491 .00023761 00000-0 17290-3 0 9991
L22 44954 52.9955 190.4020 0001568 45.6135 282.3827 15.73240374 6489

Live tracking and technical data element details for STARLINK-1066 (NORAD 44954). STARLINK-1066 can be tracked NOW for your location showing map with azimuth and elevation plus other details from your city location.

Track the satellite on the map from your city or location and see movement details for azimuth, elevation, latitude, longitude, range, height, and movement on the map or in text.







IsCatalogInMostPopularTable: catalog: 44954, numindb: 12
Update: records affected: 1



GetName: 44954 STARLINK-1066

Hit Count: updated at: Tue, 18 Feb 2020 00:10:36 GMT